THOR ABLESTAR DEB, 145

Orbit data source: Space-Track

THOR ABLESTAR DEB, 145 is space debris in LEO originally from a launch on Thu, 29 Jun 1961 UTC launched from the Air Force Eastern Test Range (AFETR). Debris objects in space refer to the collection of defunct objects orbiting the Earth. Examples of debris include non-operational satellites, rocket bodies, and fragments generated from explosions, collisions, or faulty payload assembly.

Loading next visibility...
Identifier
145, 1961-015AF
Orbit
LEO
Country
Flag of USUS
Related business
Manufacturer
Unknown
Mission
Spacecraft
Bus & Motor
Unknown
Mass
Unknown
Launch date (UTC)
1961-06-29 (65 years ago)
Launch vehicle
Unknown
Launch site
Air Force Eastern Test Range (AFETR)
Object type
Payload
Rocket body
Debris
Shape & HBR
Unknown shape, 0.4 m
Radar Cross Section
Medium (>0.1 m² and <1 m²)

Expand to show TLE details & history
Last TLE update: 1 day ago

TLE from 1 day ago
0 THOR ABLESTAR DEB
1   145U 61015AF  26144.11043532  .00000097  00000-0  11020-3 0  9992
2   145  66.9264  82.5327 0068160 310.1504  49.3624 14.03278686313333
Epoch: 2026-05-24T02:39Z
TLE epoch observation values (Epoch: 2026-05-24T02:39:01.611Z)
Latitude
-0.00003°
Longitude
161.05869°
Altitude
852.524 km
Speed
7.443 km/s
True Right ascension
05h 30m 07s
True Declination
0° 00' 00"
Sunlit
Object was in daylight at epoch
Visualization orbit readout
Latitude
Unknown
Longitude
Unknown
Altitude
Unknown
Speed
Unknown
Apparent Right ascension
Unknown
Apparent Declination
Unknown
Sunlit
N/A
Visualization observer readout
Local Sidereal Time
12:50:53
Azimuth
Unknown
Elevation
Unknown
Doppler factor
Unknown
Orbital elements
Apogee altitude
930.31 km
Perigee altitude
831.356 km
Semi-major axis
7,258.97 km
Eccentricity
0.00682
Inclination
66.9264°
RAAN
82.5327°
Arg. of periapsis
310.1504°
True anomaly
49.9584°
Mean anomaly
49.3624°
Eccentric anomaly
49.66007°
Mean motion
3.50938 °/min
Orbital period
102.58 mins
BSTAR
0.0001102
Loading maneuver chart data...
Computing Atmospheric mass density...

Documentation

Showing up to 5 results
|